QPF
0.01 0.02 0.08 0.18 0.23 0.19 0.14 0.09 0.07 0.06 0.05 0.05 0.06 0.09 0.15 0.16 0.10 0.06 0.05 0.05 0.05 0.04 0.03 0.02 0.02 0.03 0.04 0.07 0.13 0.22 0.30 0.32 0.22 0.12 0.08 0.07 0.06 0.05 0.03 0.02 0.02 0.03 0.03 0.04
0.00 0.02 0.09 0.17 0.18 0.15 0.11 0.07 0.06 0.06 0.06 0.04 0.06 0.11 0.16 0.20 0.20 0.14 0.11 0.11 0.09 0.07 0.06 0.05 0.04 0.04 0.05 0.09 0.18 0.33 0.49 0.44 0.25 0.14 0.10 0.09 0.09 0.10 0.08 0.06 0.05 0.06 0.05 0.05
0.01 0.02 0.06 0.12 0.13 0.09 0.09 0.07 0.05 0.04 0.03 0.03 0.07 0.12 0.16 0.23 0.27 0.20 0.14 0.14 0.14 0.15 0.13 0.12 0.12 0.11 0.11 0.15 0.22 0.33 0.38 0.32 0.24 0.16 0.12 0.10 0.11 0.10 0.10 0.09 0.09 0.09 0.09 0.08
0.01 0.03 0.11 0.15 0.16 0.14 0.13 0.09 0.05 0.03 0.02 0.05 0.11 0.12 0.18 0.20 0.20 0.21 0.14 0.09 0.09 0.10 0.11 0.12 0.13 0.15 0.16 0.17 0.21 0.24 0.25 0.23 0.18 0.15 0.13 0.10 0.08 0.07 0.07 0.09 0.11 0.12 0.13 0.12
0.01 0.04 0.13 0.14 0.12 0.14 0.13 0.09 0.05 0.04 0.03 0.03 0.03 0.02 0.06 0.09 0.08 0.09 0.06 0.03 0.03 0.02 0.02 0.04 0.03 0.04 0.05 0.06 0.07 0.08 0.08 0.08 0.06 0.05 0.04 0.03 0.02 0.02 0.02 0.05 0.07 0.10 0.12 0.12
0.00 0.01 0.03 0.03 0.02 0.05 0.08 0.10 0.05 0.03 0.03 0.01 0.00 0.00 0.01 0.03 0.04 0.02 0.01 0.00 0.00 0.00 0.00 0.00 0.00 0.00 0.00 0.00 0.00 0.01 0.01 0.00 0.00 0.00 0.00 0.00 0.00 0.01 0.01 0.02 0.04 0.07 0.08 0.09
0.00 0.00 0.01 0.00 0.01 0.04 0.09 0.10 0.03 0.02 0.01 0.00 0.00 0.00 0.01 0.02 0.03 0.02 0.00 0.00 0.00 0.00 0.00 0.00 0.00 0.00 0.00 0.00 0.00 0.00 0.00 0.00 0.00 0.00 0.00 0.00 0.00 0.00 0.01 0.01 0.01 0.03 0.05 0.08
0.00 0.00 0.01 0.00 0.01 0.02 0.02 0.02 0.01 0.00 0.00 0.00 0.00 0.00 0.00 0.01 0.02 0.01 0.00 0.00 0.00 0.00 0.00 0.00 0.00 0.00 0.00 0.00 0.00 0.00 0.00 0.00 0.00 0.00 0.00 0.00 0.00 0.00 0.00 0.00 0.00 0.01 0.02 0.03
0.00 0.00 0.00 0.00 0.00 0.00 0.00 0.00 0.00 0.00 0.00 0.00 0.00 0.00 0.00 0.01 0.01 0.01 0.00 0.00 0.00 0.00 0.00 0.00 0.00 0.00 0.00 0.00 0.00 0.00 0.00 0.00 0.00 0.00 0.00 0.00 0.00 0.00 0.00 0.00 0.00 0.00 0.00 0.00
0.00 0.00 0.00 0.00 0.00 0.00 0.00 0.00 0.00 0.00 0.00 0.00 0.00 0.00 0.00 0.00 0.01 0.01 0.00 0.00 0.00 0.00 0.00 0.00 0.00 0.00 0.00 0.00 0.00 0.00 0.00 0.00 0.00 0.00 0.00 0.00 0.00 0.00 0.00 0.00 0.00 0.00 0.00 0.00
0.00 0.00 0.00 0.00 0.00 0.00 0.00 0.00 0.00 0.00 0.00 0.00 0.00 0.00 0.00 0.01 0.01 0.01 0.00 0.00 0.00 0.00 0.00 0.00 0.00 0.00 0.00 0.00 0.00 0.00 0.00 0.00 0.00 0.00 0.00 0.00 0.00 0.00 0.00 0.00 0.00 0.00 0.00 0.00
0.00 0.00 0.00 0.00 0.00 0.00 0.00 0.00 0.00 0.00 0.00 0.00 0.00 0.00 0.00 0.00 0.01 0.00 0.00 0.00 0.00 0.00 0.00 0.00 0.00 0.00 0.00 0.00 0.00 0.00 0.00 0.00 0.00 0.00 0.00 0.00 0.00 0.00 0.00 0.00 0.00 0.00 0.00 0.00
0.00 0.00 0.00 0.00 0.00 0.00 0.00 0.00 0.00 0.00 0.00 0.00 0.00 0.00 0.00 0.00 0.00 0.00 0.00 0.00 0.00 0.00 0.00 0.00 0.00 0.00 0.00 0.00 0.00 0.00 0.00 0.00 0.00 0.00 0.00 0.00 0.00 0.00 0.00 0.00 0.00 0.00 0.00 0.00
0.00 0.00 0.00 0.00 0.00 0.00 0.00 0.00 0.00 0.00 0.00 0.00 0.00 0.00 0.00 0.00 0.00 0.00 0.00 0.00 0.00 0.00 0.00 0.00 0.00 0.00 0.00 0.00 0.00 0.00 0.00 0.00 0.00 0.00 0.00 0.00 0.00 0.00 0.00 0.00 0.00 0.00 0.00 0.00
0.00 0.00 0.00 0.00 0.00 0.00 0.00 0.00 0.00 0.00 0.00 0.00 0.00 0.00 0.00 0.00 0.00 0.00 0.00 0.00 0.00 0.00 0.00 0.00 0.00 0.00 0.00 0.00 0.00 0.00 0.00 0.00 0.00 0.00 0.00 0.00 0.00 0.00 0.00 0.00 0.00 0.00 0.00 0.00
0.00 0.00 0.00 0.00 0.00 0.00 0.00 0.00 0.00 0.00 0.00 0.00 0.00 0.00 0.00 0.00 0.00 0.00 0.00 0.00 0.00 0.00 0.00 0.00 0.00 0.00 0.00 0.00 0.00 0.00 0.00 0.00 0.00 0.00 0.00 0.00 0.00 0.00 0.00 0.00 0.00 0.00 0.00 0.00
0.00 0.00 0.00 0.00 0.00 0.00 0.00 0.00 0.00 0.00 0.00 0.00 0.00 0.00 0.00 0.00 0.00 0.00 0.00 0.00 0.00 0.00 0.00 0.00 0.00 0.00 0.00 0.00 0.00 0.00 0.00 0.00 0.00 0.00 0.00 0.00 0.00 0.00 0.00 0.00 0.00 0.00 0.00 0.00
0.00 0.00 0.00 0.00 0.00 0.00 0.00 0.00 0.00 0.00 0.00 0.00 0.00 0.00 0.00 0.00 0.00 0.00 0.00 0.00 0.00 0.00 0.00 0.00 0.00 0.00 0.00 0.00 0.00 0.00 0.00 0.00 0.00 0.00 0.00 0.00 0.00 0.00 0.00 0.00 0.00 0.00 0.00 0.00
0.00 0.00 0.00 0.00 0.00 0.00 0.00 0.00 0.00 0.00 0.00 0.00 0.00 0.00 0.00 0.00 0.00 0.00 0.00 0.00 0.00 0.00 0.00 0.00 0.00 0.00 0.00 0.00 0.00 0.00 0.00 0.00 0.00 0.00 0.00 0.00 0.00 0.00 0.00 0.00 0.00 0.00 0.00 0.00
0.00 0.00 0.00 0.00 0.00 0.00 0.00 0.00 0.00 0.00 0.00 0.00 0.00 0.00 0.00 0.00 0.00 0.00 0.00 0.00 0.00 0.00 0.00 0.00 0.00 0.00 0.00 0.00 0.00 0.00 0.00 0.00 0.00 0.00 0.00 0.00 0.00 0.00 0.00 0.00 0.00 0.00 0.00 0.00
0.00 0.00 0.00 0.00 0.00 0.00 0.00 0.00 0.00 0.00 0.00 0.00 0.00 0.00 0.00 0.00 0.00 0.00 0.00 0.00 0.00 0.00 0.00 0.00 0.00 0.00 0.00 0.00 0.00 0.00 0.00 0.00 0.00 0.00 0.00 0.00 0.00 0.00 0.00 0.00 0.00 0.00 0.00 0.00
0.00 0.00 0.00 0.00 0.00 0.00 0.00 0.00 0.00 0.00 0.00 0.00 0.00 0.00 0.00 0.00 0.00 0.00 0.00 0.00 0.00 0.00 0.00 0.00 0.00 0.00 0.00 0.00 0.00 0.00 0.00 0.00 0.00 0.00 0.00 0.00 0.00 0.00 0.00 0.00 0.00 0.00 0.00 0.00
0.00 0.00 0.00 0.00 0.00 0.00 0.00 0.00 0.00 0.00 0.00 0.00 0.00 0.00 0.00 0.00 0.00 0.00 0.00 0.00 0.00 0.00 0.00 0.00 0.00 0.00 0.00 0.00 0.00 0.00 0.00 0.00 0.00 0.00 0.00 0.00 0.00 0.00 0.00 0.00 0.00 0.00 0.00 0.00
0.00 0.00 0.00 0.00 0.00 0.00 0.00 0.00 0.00 0.00 0.00 0.00 0.00 0.00 0.00 0.00 0.00 0.00 0.00 0.00 0.00 0.00 0.00 0.00 0.00 0.00 0.00 0.00 0.00 0.00 0.00 0.00 0.00 0.00 0.00 0.00 0.00 0.00 0.00 0.00 0.00 0.00 0.00 0.00
0.00 0.00 0.00 0.00 0.00 0.00 0.00 0.00 0.00 0.00 0.00 0.00 0.00 0.00 0.00 0.00 0.00 0.00 0.00 0.00 0.00 0.00 0.00 0.00 0.00 0.00 0.00 0.00 0.00 0.00 0.00 0.00 0.00 0.00 0.00 0.00 0.00 0.00 0.00 0.00 0.00 0.00 0.00 0.00
0.00 0.00 0.00 0.00 0.00 0.00 0.00 0.00 0.00 0.00 0.00 0.00 0.00 0.00 0.00 0.00 0.00 0.00 0.00 0.00 0.00 0.00 0.00 0.00 0.00 0.00 0.00 0.00 0.00 0.00 0.00 0.00 0.00 0.00 0.00 0.00 0.00 0.00 0.00 0.00 0.00 0.00 0.00 0.00
0.00 0.00 0.00 0.00 0.00 0.00 0.00 0.00 0.00 0.00 0.00 0.00 0.00 0.00 0.00 0.00 0.00 0.00 0.00 0.00 0.00 0.00 0.00 0.00 0.00 0.00 0.00 0.00 0.00 0.00 0.00 0.00 0.00 0.00 0.00 0.00 0.00 0.00 0.00 0.00 0.00 0.00 0.00 0.00
MSLP
1018.10 1018.24 1018.44 1018.67 1018.90 1019.06 1019.12 1019.02 1018.75 1018.31 1017.70 1016.97 1016.17 1015.35 1014.55 1013.83 1013.18 1012.60 1012.10 1011.64 1011.20 1010.77 1010.36 1009.96 1009.61 1009.33 1009.15 1009.09 1009.15 1009.31 1009.56 1009.85 1010.14 1010.39 1010.58 1010.68 1010.69 1010.64 1010.54 1010.44 1010.37 1010.36 1010.43 1010.57
1018.70 1018.90 1019.15 1019.42 1019.66 1019.82 1019.87 1019.76 1019.47 1019.01 1018.40 1017.67 1016.86 1016.03 1015.22 1014.47 1013.78 1013.17 1012.63 1012.14 1011.68 1011.25 1010.85 1010.48 1010.17 1009.93 1009.79 1009.76 1009.83 1009.99 1010.21 1010.45 1010.68 1010.86 1010.96 1010.98 1010.90 1010.76 1010.58 1010.39 1010.24 1010.15 1010.14 1010.23
1019.45 1019.71 1019.99 1020.27 1020.52 1020.68 1020.72 1020.60 1020.31 1019.84 1019.23 1018.49 1017.68 1016.84 1016.01 1015.22 1014.50 1013.85 1013.27 1012.75 1012.28 1011.85 1011.47 1011.14 1010.87 1010.67 1010.56 1010.54 1010.61 1010.74 1010.91 1011.09 1011.24 1011.33 1011.35 1011.28 1011.13 1010.91 1010.66 1010.41 1010.18 1010.02 1009.95 1009.97
1020.32 1020.59 1020.88 1021.15 1021.38 1021.52 1021.54 1021.40 1021.09 1020.62 1020.01 1019.27 1018.46 1017.61 1016.77 1015.96 1015.22 1014.54 1013.93 1013.39 1012.92 1012.51 1012.15 1011.86 1011.62 1011.46 1011.37 1011.35 1011.39 1011.47 1011.58 1011.67 1011.74 1011.75 1011.69 1011.55 1011.34 1011.08 1010.79 1010.50 1010.24 1010.03 1009.90 1009.87
1021.20 1021.45 1021.70 1021.93 1022.11 1022.20 1022.17 1022.00 1021.67 1021.19 1020.57 1019.84 1019.04 1018.19 1017.35 1016.54 1015.79 1015.10 1014.49 1013.96 1013.50 1013.11 1012.79 1012.53 1012.34 1012.20 1012.12 1012.08 1012.09 1012.11 1012.14 1012.16 1012.14 1012.08 1011.96 1011.78 1011.55 1011.28 1010.99 1010.70 1010.43 1010.21 1010.04 1009.95
1021.97 1022.16 1022.33 1022.48 1022.57 1022.59 1022.49 1022.27 1021.91 1021.42 1020.80 1020.08 1019.30 1018.48 1017.65 1016.86 1016.12 1015.45 1014.86 1014.36 1013.93 1013.58 1013.30 1013.08 1012.92 1012.81 1012.73 1012.68 1012.65 1012.62 1012.58 1012.52 1012.44 1012.32 1012.17 1011.97 1011.75 1011.51 1011.25 1011.00 1010.76 1010.54 1010.37 1010.24
1022.51 1022.60 1022.67 1022.72 1022.71 1022.63 1022.46 1022.18 1021.79 1021.28 1020.67 1019.97 1019.22 1018.44 1017.66 1016.91 1016.21 1015.57 1015.02 1014.56 1014.17 1013.87 1013.64 1013.46 1013.34 1013.24 1013.17 1013.11 1013.04 1012.97 1012.88 1012.77 1012.65 1012.50 1012.34 1012.16 1011.98 1011.79 1011.59 1011.40 1011.21 1011.02 1010.85 1010.70
1022.74 1022.72 1022.69 1022.62 1022.51 1022.34 1022.09 1021.76 1021.34 1020.83 1020.24 1019.58 1018.88 1018.15 1017.43 1016.73 1016.08 1015.50 1015.00 1014.58 1014.24 1013.99 1013.80 1013.67 1013.57 1013.50 1013.44 1013.38 1013.30 1013.20 1013.09 1012.95 1012.81 1012.66 1012.51 1012.37 1012.24 1012.12 1012.00 1011.87 1011.74 1011.60 1011.44 1011.27
1022.63 1022.52 1022.39 1022.23 1022.04 1021.80 1021.50 1021.14 1020.71 1020.22 1019.66 1019.05 1018.40 1017.74 1017.08 1016.45 1015.86 1015.33 1014.87 1014.50 1014.20 1013.98 1013.83 1013.73 1013.66 1013.62 1013.58 1013.52 1013.45 1013.35 1013.23 1013.10 1012.96 1012.83 1012.71 1012.62 1012.55 1012.49 1012.44 1012.39 1012.32 1012.21 1012.07 1011.90
1022.23 1022.06 1021.86 1021.65 1021.40 1021.13 1020.81 1020.45 1020.05 1019.59 1019.08 1018.53 1017.96 1017.36 1016.77 1016.20 1015.66 1015.17 1014.74 1014.39 1014.12 1013.92 1013.78 1013.70 1013.66 1013.63 1013.61 1013.58 1013.53 1013.45 1013.35 1013.24 1013.13 1013.03 1012.95 1012.91 1012.89 1012.89 1012.90 1012.90 1012.87 1012.80 1012.67 1012.49
1021.62 1021.42 1021.21 1020.98 1020.74 1020.47 1020.18 1019.85 1019.48 1019.08 1018.64 1018.16 1017.66 1017.13 1016.60 1016.07 1015.57 1015.10 1014.68 1014.33 1014.05 1013.85 1013.71 1013.63 1013.59 1013.59 1013.59 1013.58 1013.56 1013.52 1013.46 1013.39 1013.32 1013.26 1013.22 1013.22 1013.23 1013.27 1013.32 1013.35 1013.35 1013.30 1013.18 1013.00
1020.91 1020.72 1020.53 1020.34 1020.14 1019.92 1019.68 1019.41 1019.11 1018.78 1018.41 1018.01 1017.56 1017.09 1016.60 1016.11 1015.62 1015.15 1014.72 1014.35 1014.04 1013.80 1013.64 1013.54 1013.50 1013.49 1013.51 1013.54 1013.56 1013.57 1013.56 1013.54 1013.51 1013.49 1013.49 1013.51 1013.55 1013.61 1013.66 1013.71 1013.72 1013.67 1013.56 1013.38
1020.18 1020.04 1019.92 1019.79 1019.66 1019.52 1019.35 1019.16 1018.94 1018.67 1018.37 1018.03 1017.64 1017.21 1016.75 1016.27 1015.78 1015.30 1014.84 1014.42 1014.06 1013.78 1013.57 1013.43 1013.37 1013.36 1013.39 1013.44 1013.51 1013.56 1013.61 1013.65 1013.67 1013.69 1013.72 1013.76 1013.81 1013.87 1013.92 1013.95 1013.96 1013.91 1013.81 1013.63
1019.50 1019.44 1019.40 1019.37 1019.32 1019.26 1019.17 1019.05 1018.89 1018.69 1018.44 1018.14 1017.79 1017.39 1016.95 1016.47 1015.97 1015.46 1014.96 1014.49 1014.08 1013.74 1013.47 1013.30 1013.20 1013.18 1013.21 1013.29 1013.39 1013.50 1013.60 1013.69 1013.77 1013.83 1013.89 1013.94 1013.99 1014.04 1014.08 1014.10 1014.09 1014.05 1013.95 1013.79
1018.90 1018.94 1018.99 1019.04 1019.08 1019.10 1019.07 1019.01 1018.90 1018.73 1018.52 1018.25 1017.92 1017.54 1017.10 1016.62 1016.11 1015.57 1015.03 1014.52 1014.05 1013.65 1013.34 1013.11 1012.99 1012.95 1012.98 1013.08 1013.22 1013.37 1013.53 1013.68 1013.80 1013.91 1013.99 1014.05 1014.10 1014.14 1014.17 1014.17 1014.16 1014.11 1014.03 1013.90
1018.39 1018.51 1018.65 1018.79 1018.90 1018.97 1018.99 1018.96 1018.87 1018.72 1018.52 1018.26 1017.94 1017.56 1017.13 1016.65 1016.13 1015.58 1015.02 1014.47 1013.96 1013.52 1013.16 1012.90 1012.74 1012.68 1012.72 1012.83 1013.00 1013.20 1013.41 1013.60 1013.78 1013.92 1014.04 1014.12 1014.18 1014.21 1014.22 1014.22 1014.21 1014.17 1014.11 1014.02
1017.93 1018.15 1018.37 1018.57 1018.74 1018.84 1018.88 1018.85 1018.76 1018.60 1018.39 1018.13 1017.81 1017.44 1017.02 1016.54 1016.03 1015.47 1014.91 1014.35 1013.82 1013.35 1012.96 1012.67 1012.49 1012.42 1012.45 1012.58 1012.77 1013.01 1013.26 1013.51 1013.73 1013.92 1014.06 1014.17 1014.24 1014.28 1014.29 1014.29 1014.28 1014.25 1014.22 1014.18
1017.52 1017.82 1018.11 1018.37 1018.56 1018.68 1018.72 1018.68 1018.56 1018.39 1018.16 1017.89 1017.56 1017.20 1016.79 1016.33 1015.83 1015.30 1014.75 1014.20 1013.67 1013.19 1012.78 1012.47 1012.28 1012.19 1012.23 1012.36 1012.57 1012.84 1013.13 1013.42 1013.69 1013.92 1014.10 1014.23 1014.32 1014.37 1014.39 1014.40 1014.40 1014.40 1014.40 1014.40
1017.14 1017.52 1017.87 1018.17 1018.38 1018.49 1018.52 1018.45 1018.32 1018.11 1017.87 1017.58 1017.26 1016.91 1016.52 1016.09 1015.63 1015.12 1014.60 1014.07 1013.55 1013.07 1012.66 1012.35 1012.14 1012.05 1012.07 1012.21 1012.43 1012.72 1013.04 1013.37 1013.68 1013.94 1014.16 1014.33 1014.44 1014.51 1014.54 1014.56 1014.58 1014.60 1014.63 1014.67
1016.78 1017.23 1017.63 1017.96 1018.19 1018.30 1018.31 1018.22 1018.06 1017.84 1017.59 1017.30 1016.99 1016.65 1016.29 1015.90 1015.47 1015.01 1014.51 1014.01 1013.51 1013.04 1012.63 1012.30 1012.08 1011.98 1011.99 1012.13 1012.35 1012.65 1012.99 1013.35 1013.69 1013.99 1014.24 1014.44 1014.58 1014.67 1014.72 1014.76 1014.79 1014.83 1014.89 1014.96
1016.43 1016.95 1017.40 1017.75 1017.99 1018.10 1018.10 1018.01 1017.84 1017.62 1017.36 1017.09 1016.79 1016.49 1016.16 1015.80 1015.41 1014.98 1014.52 1014.03 1013.55 1013.08 1012.67 1012.33 1012.10 1011.97 1011.97 1012.09 1012.31 1012.61 1012.97 1013.34 1013.70 1014.03 1014.31 1014.54 1014.70 1014.81 1014.89 1014.94 1014.99 1015.05 1015.13 1015.23
1016.10 1016.66 1017.14 1017.52 1017.77 1017.89 1017.90 1017.82 1017.66 1017.45 1017.21 1016.96 1016.70 1016.42 1016.12 1015.80 1015.43 1015.03 1014.59 1014.12 1013.64 1013.17 1012.75 1012.39 1012.14 1011.99 1011.97 1012.07 1012.28 1012.57 1012.92 1013.30 1013.68 1014.03 1014.34 1014.58 1014.77 1014.91 1015.00 1015.08 1015.14 1015.22 1015.32 1015.45
1015.77 1016.36 1016.86 1017.25 1017.52 1017.66 1017.69 1017.62 1017.49 1017.32 1017.12 1016.90 1016.67 1016.42 1016.15 1015.85 1015.51 1015.12 1014.69 1014.22 1013.73 1013.26 1012.81 1012.44 1012.16 1011.98 1011.93 1012.01 1012.20 1012.48 1012.82 1013.20 1013.59 1013.95 1014.28 1014.55 1014.76 1014.92 1015.04 1015.13 1015.22 1015.32 1015.44 1015.59
1015.43 1016.02 1016.53 1016.92 1017.20 1017.36 1017.42 1017.39 1017.30 1017.17 1017.01 1016.84 1016.65 1016.43 1016.19 1015.91 1015.58 1015.19 1014.76 1014.28 1013.78 1013.29 1012.82 1012.42 1012.11 1011.91 1011.84 1011.89 1012.05 1012.31 1012.65 1013.02 1013.41 1013.79 1014.12 1014.41 1014.65 1014.83 1014.98 1015.10 1015.22 1015.34 1015.49 1015.67
1015.05 1015.62 1016.11 1016.50 1016.78 1016.96 1017.05 1017.07 1017.03 1016.96 1016.85 1016.72 1016.57 1016.39 1016.17 1015.90 1015.58 1015.19 1014.75 1014.26 1013.74 1013.23 1012.75 1012.33 1012.00 1011.78 1011.67 1011.70 1011.85 1012.09 1012.41 1012.77 1013.16 1013.54 1013.89 1014.19 1014.45 1014.66 1014.84 1015.00 1015.14 1015.30 1015.48 1015.69
1014.61 1015.14 1015.60 1015.97 1016.26 1016.45 1016.58 1016.64 1016.65 1016.63 1016.58 1016.50 1016.39 1016.24 1016.04 1015.79 1015.47 1015.08 1014.63 1014.14 1013.61 1013.09 1012.60 1012.17 1011.83 1011.59 1011.47 1011.48 1011.60 1011.83 1012.13 1012.48 1012.86 1013.24 1013.59 1013.91 1014.19 1014.44 1014.64 1014.84 1015.02 1015.22 1015.43 1015.68
1014.09 1014.57 1014.99 1015.34 1015.62 1015.83 1015.98 1016.09 1016.15 1016.19 1016.19 1016.16 1016.09 1015.97 1015.80 1015.56 1015.25 1014.87 1014.43 1013.94 1013.42 1012.91 1012.42 1011.99 1011.65 1011.40 1011.27 1011.27 1011.37 1011.57 1011.85 1012.19 1012.55 1012.92 1013.28 1013.61 1013.91 1014.17 1014.42 1014.65 1014.87 1015.11 1015.36 1015.65
Thickness
5588 5587 5582 5578 5582 5594 5600 5603 5600 5599 5600 5603 5616 5627 5638 5651 5660 5667 5673 5679 5686 5691 5696 5701 5705 5709 5711 5712 5711 5707 5701 5694 5689 5688 5686 5685 5684 5683 5682 5680 5678 5676 5674 5672
5584 5584 5582 5577 5576 5584 5590 5593 5595 5598 5597 5605 5616 5627 5636 5643 5651 5657 5662 5668 5675 5681 5685 5688 5692 5696 5699 5701 5700 5697 5691 5686 5681 5679 5678 5679 5680 5679 5677 5674 5673 5671 5669 5668
5577 5585 5585 5570 5564 5570 5577 5581 5586 5586 5589 5603 5612 5620 5629 5635 5642 5648 5654 5660 5665 5669 5672 5675 5678 5682 5684 5686 5687 5684 5679 5676 5674 5672 5672 5673 5673 5672 5670 5668 5667 5665 5664 5663
5577 5579 5566 5561 5569 5571 5576 5580 5582 5586 5593 5601 5608 5620 5630 5634 5637 5644 5650 5654 5658 5661 5664 5666 5668 5671 5674 5675 5675 5672 5669 5667 5666 5665 5664 5664 5664 5663 5662 5661 5659 5658 5658 5658
5573 5571 5567 5570 5576 5575 5576 5582 5584 5588 5596 5604 5611 5624 5630 5638 5640 5644 5650 5654 5656 5659 5661 5662 5664 5666 5667 5665 5664 5663 5661 5660 5659 5658 5657 5656 5655 5654 5654 5653 5653 5652 5652 5652
5574 5572 5565 5570 5583 5586 5581 5586 5590 5593 5598 5604 5609 5610 5619 5635 5641 5647 5653 5655 5657 5659 5660 5660 5661 5662 5660 5658 5658 5656 5655 5654 5653 5652 5650 5649 5648 5647 5647 5646 5646 5646 5645 5646
5572 5572 5573 5582 5589 5592 5583 5582 5592 5596 5600 5604 5604 5607 5621 5634 5643 5650 5656 5658 5658 5658 5657 5657 5658 5658 5655 5654 5652 5652 5651 5649 5647 5646 5644 5643 5642 5641 5640 5639 5639 5638 5638 5637
5575 5572 5573 5592 5592 5587 5587 5594 5597 5601 5605 5609 5614 5623 5632 5640 5647 5653 5657 5659 5658 5655 5655 5656 5656 5655 5652 5650 5650 5648 5646 5644 5641 5640 5638 5637 5635 5633 5632 5631 5630 5629 5628 5627
5584 5583 5593 5599 5599 5601 5601 5600 5604 5607 5612 5616 5621 5627 5635 5642 5649 5654 5658 5658 5657 5655 5654 5654 5653 5652 5649 5647 5647 5644 5640 5637 5635 5632 5630 5628 5626 5624 5622 5621 5620 5618 5617 5616
5593 5596 5600 5603 5605 5607 5609 5609 5612 5615 5618 5622 5625 5631 5637 5644 5650 5653 5656 5657 5656 5654 5652 5650 5650 5649 5647 5646 5644 5640 5635 5631 5628 5625 5622 5619 5617 5615 5613 5611 5610 5609 5608 5606
5598 5602 5605 5607 5609 5612 5614 5616 5619 5622 5625 5628 5631 5635 5640 5644 5649 5652 5654 5655 5655 5653 5651 5649 5649 5647 5646 5643 5640 5635 5630 5627 5623 5620 5616 5613 5609 5607 5606 5604 5602 5601 5599 5598
5600 5605 5603 5606 5614 5617 5618 5619 5622 5624 5627 5632 5635 5638 5642 5645 5649 5652 5653 5654 5653 5653 5652 5650 5648 5646 5644 5641 5637 5632 5627 5623 5619 5616 5613 5609 5606 5603 5600 5599 5598 5596 5595 5593
5617 5617 5614 5616 5620 5622 5622 5624 5626 5627 5629 5632 5637 5640 5643 5646 5650 5652 5654 5655 5654 5654 5653 5652 5649 5646 5644 5641 5637 5632 5626 5622 5618 5615 5613 5609 5606 5602 5599 5597 5595 5593 5592 5590
5628 5625 5621 5622 5621 5624 5625 5626 5628 5629 5631 5634 5637 5641 5644 5646 5650 5652 5654 5657 5658 5658 5656 5655 5651 5649 5647 5643 5638 5633 5628 5624 5620 5617 5613 5610 5607 5604 5600 5596 5593 5590 5589 5588
5633 5628 5625 5626 5626 5626 5627 5627 5627 5627 5631 5634 5638 5641 5644 5646 5649 5652 5657 5660 5662 5661 5660 5658 5655 5652 5650 5646 5640 5635 5630 5626 5622 5619 5616 5612 5608 5604 5600 5596 5591 5588 5587 5587
5638 5632 5629 5628 5626 5626 5627 5627 5626 5627 5630 5634 5637 5641 5644 5647 5650 5654 5658 5661 5661 5661 5663 5662 5660 5658 5654 5649 5643 5638 5633 5631 5626 5622 5618 5614 5609 5605 5600 5596 5592 5588 5586 5585
5641 5633 5631 5628 5627 5627 5626 5627 5627 5628 5631 5634 5637 5641 5645 5648 5651 5655 5659 5662 5664 5666 5668 5667 5665 5664 5659 5653 5647 5642 5637 5633 5631 5625 5621 5617 5612 5608 5603 5598 5594 5590 5588 5586
5652 5644 5637 5633 5628 5626 5627 5628 5628 5629 5631 5634 5637 5640 5643 5646 5649 5653 5658 5662 5665 5668 5671 5671 5670 5668 5663 5658 5652 5647 5641 5637 5632 5628 5624 5620 5616 5612 5607 5603 5599 5595 5592 5590
5655 5649 5644 5640 5635 5630 5628 5628 5629 5629 5632 5634 5635 5637 5640 5644 5648 5653 5657 5661 5662 5664 5669 5673 5673 5670 5665 5661 5656 5651 5646 5641 5636 5632 5628 5625 5620 5615 5611 5607 5604 5600 5597 5594
5657 5653 5648 5644 5641 5635 5631 5630 5630 5629 5631 5632 5633 5634 5637 5642 5647 5651 5655 5658 5661 5664 5669 5674 5674 5671 5667 5663 5659 5654 5649 5645 5640 5635 5631 5627 5623 5619 5615 5612 5609 5605 5602 5598
5658 5654 5649 5645 5641 5639 5635 5633 5630 5628 5629 5629 5629 5630 5633 5638 5643 5648 5651 5655 5662 5667 5670 5673 5672 5670 5668 5664 5661 5656 5652 5647 5643 5639 5635 5631 5627 5622 5619 5615 5612 5609 5606 5602
5657 5653 5649 5644 5641 5638 5636 5633 5631 5629 5628 5627 5627 5628 5630 5634 5639 5644 5649 5653 5659 5666 5669 5670 5671 5671 5669 5666 5661 5657 5654 5650 5646 5641 5638 5634 5630 5626 5622 5618 5615 5612 5608 5605
5656 5651 5647 5643 5640 5638 5636 5634 5632 5630 5628 5626 5625 5624 5625 5628 5633 5638 5645 5653 5659 5664 5668 5670 5672 5673 5671 5667 5663 5659 5656 5652 5648 5644 5641 5637 5633 5629 5625 5621 5618 5614 5610 5607
5653 5649 5646 5643 5639 5636 5634 5633 5631 5629 5627 5626 5624 5623 5622 5624 5630 5637 5643 5650 5657 5663 5667 5671 5674 5675 5672 5667 5664 5661 5657 5654 5650 5647 5644 5640 5636 5632 5628 5624 5620 5616 5613 5609
5652 5648 5645 5641 5637 5634 5633 5632 5630 5629 5627 5624 5623 5623 5622 5623 5625 5632 5640 5646 5654 5660 5665 5670 5674 5674 5671 5667 5665 5662 5659 5656 5653 5649 5646 5642 5638 5634 5630 5626 5622 5618 5614 5610
5648 5645 5642 5640 5637 5634 5632 5630 5628 5626 5624 5623 5622 5622 5622 5623 5626 5630 5635 5642 5648 5655 5660 5665 5668 5670 5669 5667 5665 5663 5660 5657 5654 5651 5648 5644 5640 5636 5632 5628 5624 5620 5616 5611
5643 5640 5638 5635 5633 5632 5630 5629 5627 5626 5624 5623 5622 5622 5622 5622 5624 5627 5631 5636 5642 5648 5654 5660 5663 5666 5666 5666 5665 5663 5661 5658 5655 5652 5649 5646 5642 5638 5634 5630 5626 5621 5617 5613